Weather History for KTXK - August, 2013

Change the Weather History Date:

Saturday, August 24, 2013

  Actual Average Record
Temperature  
Mean Temperature 84 °F 81 °F  
Max Temperature 97 °F 93 °F 105 °F (1938)
Min Temperature 71 °F 70 °F 58 °F (1931)
Degree Days  
Heating Degree Days 0 0  
Month to date heating degree days 0 0  
Since 1 June heating degree days 0 0  
Since 1 July heating degree days 0 0  
Cooling Degree Days 19 16  
Month to date cooling degree days 425 421  
Year to date cooling degree days 1672 1681  
Since 1 June cooling degree days 1374 1361  
Growing Degree Days 33 (Base 50)    
Moisture  
Dew Point 69 °F    
Average Humidity 66    
Maximum Humidity 93    
Minimum Humidity 39    
Precipitation  
Precipitation T in 0.10 in 1.39 in (2005)
Month to date precipitation 0.27 2.18  
Year to date precipitation 19.58 30.69  
Snow  
Snow 0.00 in - - ()
Month to date snowfall 0.0  
Since 1 June snowfall 0.0  
Since 1 July snowfall 0.0  
Snow Depth 0.00 in    
Sea Level Pressure  
Sea Level Pressure 30.04 in    
Wind  
Wind Speed 5 mph (ENE)    
Max Wind Speed 13 mph    
Max Gust Speed 18 mph    
Visibility 10 miles    
Events      
T = Trace of Precipitation, MM = Missing Value Source: NWS Daily Summary

Daily Weather History Graph

Daily Weather History Graph

Search for Another Location

Airport or City:

Trip Planner

Search our weather history database for the weather conditions in past years. The results will help you decide how hot, cold, wet, or windy it might be!

Date:

Astronomy

Aug. 24, 2013 Rise Set
Actual Time 6:44 AM CDT 7:51 PM CDT
Civil Twilight 6:19 AM CDT 8:16 PM CDT
Nautical Twilight 5:48 AM CDT 8:47 PM CDT
Astronomical Twilight 5:16 AM CDT 9:18 PM CDT
Moon 10:01 PM CDT (8/24) 10:30 AM CDT (8/24)
Length of Visible Light 13h 57m
Length of Day
13h 06m
Waning Gibbous, 84% of the Moon is Illuminated
Aug 24
Waning Gibbous
Aug 28
Last Quarter
Sep 5
New
Sep 12
First Quarter
Sep 19
Full

Hourly Weather History & Observations

Time (CDT) Temp. Heat Index Dew Point Humidity Pressure Visibility Wind Dir Wind Speed Gust Speed Precip Events Conditions
12:53 AM 78.1 °F - 70.0 °F 76% 30.01 in 10.0 mi Calm Calm - N/A   Clear
1:53 AM 73.9 °F - 69.1 °F 85% 30.01 in 10.0 mi ENE 3.5 mph - N/A   Clear
2:53 AM 73.9 °F - 70.0 °F 87% 30.01 in 10.0 mi Calm Calm - N/A   Clear
3:53 AM 73.9 °F - 70.0 °F 87% 30.01 in 10.0 mi Calm Calm - N/A   Clear
4:53 AM 73.0 °F - 70.0 °F 90% 30.02 in 9.0 mi NE 4.6 mph - N/A   Clear
5:53 AM 73.0 °F - 70.0 °F 90% 30.04 in 8.0 mi Calm Calm - N/A   Clear
6:53 AM 71.1 °F - 70.0 °F 96% 30.05 in 6.0 mi ENE 4.6 mph - N/A   Clear
7:53 AM 75.0 °F - 71.1 °F 87% 30.07 in 7.0 mi ENE 4.6 mph - N/A   Clear
8:53 AM 79.0 °F - 71.1 °F 77% 30.09 in 10.0 mi ENE 6.9 mph - N/A   Clear
9:53 AM 82.9 °F 88.0 °F 72.0 °F 69% 30.09 in 10.0 mi ENE 4.6 mph - N/A   Clear
10:53 AM 88.0 °F 93.8 °F 71.1 °F 57% 30.09 in 10.0 mi Variable 5.8 mph - N/A   Clear
11:53 AM 91.0 °F 96.6 °F 70.0 °F 50% 30.08 in 10.0 mi NE 6.9 mph - N/A   Partly Cloudy
12:53 PM 93.0 °F 97.9 °F 69.1 °F 45% 30.07 in 10.0 mi Variable 5.8 mph - N/A   Partly Cloudy
1:53 PM 93.0 °F 97.4 °F 68.0 °F 44% 30.06 in 10.0 mi Variable 5.8 mph - N/A   Scattered Clouds
2:53 PM 93.0 °F 96.4 °F 66.9 °F 42% 30.04 in 10.0 mi East 8.1 mph - N/A   Partly Cloudy
3:53 PM 93.0 °F 96.4 °F 66.9 °F 42% 30.02 in 10.0 mi ENE 6.9 mph - N/A   Partly Cloudy
4:53 PM 95.0 °F 99.0 °F 66.9 °F 40% 30.01 in 10.0 mi East 11.5 mph - N/A   Partly Cloudy
5:53 PM 95.0 °F 97.9 °F 66.0 °F 38% 30.01 in 10.0 mi SE 9.2 mph - N/A   Clear
6:53 PM 93.0 °F 96.4 °F 66.9 °F 42% 30.00 in 10.0 mi East 4.6 mph - N/A   Clear
7:53 PM 88.0 °F 92.9 °F 70.0 °F 55% 30.02 in 10.0 mi ENE 8.1 mph - N/A   Scattered Clouds
8:53 PM 84.9 °F 88.8 °F 69.1 °F 59% 30.04 in 10.0 mi Calm Calm - N/A   Scattered Clouds
9:53 PM 82.9 °F 86.5 °F 69.1 °F 63% 30.06 in 10.0 mi Calm Calm - 0.00 in   Clear
10:53 PM 82.0 °F 85.5 °F 69.1 °F 65% 30.07 in 10.0 mi ENE 4.6 mph - N/A   Clear
11:53 PM 79.0 °F - 70.0 °F 74% 30.08 in 10.0 mi ENE 3.5 mph - N/A   Clear